Location: Ariel
(45.9570°N, 122.5700°W)
Time: 10:52:40
(UTC-07:00)

OTV 5 (USA 277) - Visible Passes

Search period start: 24 June 2019 00:00
Search period end: 04 July 2019 00:00
Orbit: 280 x 298 km, 54.5° (Epoch: 21 June)

Date Brightness Start Highest point End Pass type
(mag) Time Alt. Az. Time Alt. Az. Time Alt. Az.
24 Jun ? 00:34:20 10° NNW 00:35:22 12° N 00:36:25 10° NNE visible
24 Jun ? 02:07:58 10° NNW 02:09:49 18° NNE 02:11:38 10° ENE visible
24 Jun ? 03:41:17 10° WNW 03:43:45 68° SW 03:46:11 10° SE visible
24 Jun ? 23:04:32 10° WNW 23:06:16 17° NNW 23:08:00 10° NNE visible
25 Jun ? 00:39:38 10° NNW 00:40:44 12° N 00:41:49 10° NNE visible
25 Jun ? 02:12:54 10° NW 02:15:04 26° NNE 02:17:13 10° E visible
25 Jun ? 03:46:33 10° WNW 03:48:46 29° SW 03:49:21 26° SSW visible
25 Jun ? 23:10:13 10° NW 23:11:35 13° N 23:12:57 10° NNE visible
26 Jun ? 00:44:42 10° NNW 00:46:05 14° N 00:47:26 10° NE visible
26 Jun ? 02:17:52 10° NW 02:19:54 40° N 02:19:54 40° N visible
26 Jun ? 21:40:25 10° W 21:42:35 26° NNW 21:44:46 10° NE visible
26 Jun ? 23:15:51 10° NNW 23:16:56 12° N 23:18:01 10° NNE visible
27 Jun ? 00:49:39 10° NNW 00:51:24 17° NNE 00:53:00 11° ENE visible
27 Jun ? 02:22:55 10° NW 02:23:14 13° NW 02:23:14 13° NW visible
27 Jun ? 21:46:00 10° WNW 21:47:51 18° NNW 21:49:41 10° NNE visible
27 Jun ? 23:21:14 10° NNW 23:22:17 12° N 23:23:20 10° NNE visible
28 Jun ? 00:54:34 10° NW 00:56:40 23° NNE 00:56:52 23° NNE visible
28 Jun ? 21:51:40 10° NW 21:53:09 14° NNW 21:54:38 10° NNE visible
28 Jun ? 23:26:21 10° NNW 23:27:38 13° N 23:28:55 10° NE visible
29 Jun ? 00:59:32 10° NW 01:01:00 26° NNW 01:01:00 26° NNW visible
29 Jun ? 21:57:20 10° NW 21:58:29 12° N 21:59:39 10° NNE visible
29 Jun ? 23:31:20 10° NNW 23:32:57 16° NNE 23:34:36 10° NE visible
30 Jun ? 01:04:33 10° NW 01:05:16 17° NW 01:05:16 17° NW visible
30 Jun ? 22:02:48 10° NNW 22:03:51 12° N 22:04:53 10° NNE visible
30 Jun ? 23:36:15 10° NNW 23:38:15 21° NNE 23:39:22 16° ENE visible
01 Jul ? 22:08:00 10° NNW 22:09:12 13° N 22:10:24 10° NE visible
01 Jul ? 23:41:12 10° NW 23:43:29 32° NNE 23:43:47 30° NE visible
02 Jul ? 22:13:00 10° NNW 22:14:32 15° NNE 22:16:04 10° NE visible
02 Jul ? 23:46:12 10° NW 23:48:16 50° NNW 23:48:16 50° NNW visible
03 Jul ? 22:17:57 10° NNW 22:19:50 19° NNE 22:21:44 10° ENE visible
03 Jul ? 23:51:18 10° WNW 23:52:48 31° WNW 23:52:48 31° WNW visible
